Dewpoint
26 40 57 58 59 61 63 65 66 66 66 66 65 65 65 66 65 65 66 66 66 65 63 64 64 62 62 62 62 61 59 57
26 31 52 59 59 60 61 63 65 65 64 63 63 63 64 65 65 66 66 66 66 65 62 63 63 61 61 63 62 61 60 60
30 30 35 60 60 61 60 62 64 65 64 64 63 63 63 63 64 65 65 65 65 64 64 62 62 61 62 63 62 60 60 61
32 32 34 41 60 61 60 61 61 64 64 65 64 61 61 62 63 63 64 65 65 65 64 63 63 63 61 62 62 61 58 61
36 29 29 35 43 61 62 61 60 62 64 62 61 57 57 59 61 62 62 64 64 64 64 64 63 62 62 62 61 61 61 59
43 46 45 31 34 44 62 62 61 60 61 61 60 59 56 61 60 61 62 63 64 63 64 64 63 62 63 63 63 63 61 60
41 46 49 50 53 52 43 61 62 62 61 62 61 61 59 57 58 59 59 62 63 63 63 64 63 63 63 63 64 63 63 63
33 38 43 47 52 56 58 54 54 63 63 61 61 61 62 60 59 59 60 61 62 63 64 64 62 63 63 63 64 64 63 63
30 33 36 39 43 49 56 59 55 61 64 64 62 61 61 63 63 61 63 62 63 64 65 65 65 63 64 65 65 65 65 67
30 31 33 34 37 41 44 52 56 59 62 64 64 64 63 64 64 66 66 66 66 67 67 66 66 66 65 66 66 67 67 67
34 33 34 33 34 36 39 41 43 50 53 54 55 57 58 61 65 66 67 67 67 67 67 67 67 67 67 67 66 66 66 66
36 37 36 36 36 35 37 37 38 41 44 49 52 54 54 54 55 56 59 62 63 63 62 62 61 61 63 63 63 63 64 63
35 37 38 38 37 36 35 37 37 38 40 42 44 47 51 52 52 53 55 55 57 59 61 63 62 63 64 62 62 60 61 60
36 34 35 38 38 38 37 38 38 38 38 40 42 43 44 50 51 51 51 52 53 54 55 56 58 59 61 63 64 65 62 61
31 35 34 35 38 39 39 39 40 40 39 39 41 43 43 43 48 49 50 50 50 49 50 51 54 55 54 55 56 57 59 62
30 31 32 34 35 37 37 39 40 40 39 40 42 43 43 43 43 44 45 47 48 48 48 48 49 50 47 50 52 55 56 58
29 30 31 32 33 34 35 36 38 40 39 40 41 42 42 43 43 43 42 43 44 47 47 47 47 46 41 41 43 50 51 54
29 30 32 33 34 35 34 34 35 37 38 39 40 40 40 41 41 41 42 42 43 43 45 46 46 47 41 41 40 48 48 50
32 32 34 34 33 33 34 33 33 35 34 35 37 38 39 38 41 41 41 42 43 43 43 44 46 46 40 40 40 46 47 47
Lifted_Index
7 5 1 -1 -2 -2 -1 -1 -1 -1 -1 -1 -0 -1 -1 -1 -1 -1 -1 -1 -0 0 1 1 1 1 2 2 2 2 3 3
7 5 2 -1 -2 -2 -2 -2 -1 -1 -1 -0 -0 -0 -1 -1 -1 -1 -1 -1 -1 -0 1 1 1 1 2 2 2 2 2 3
7 6 4 0 -2 -3 -3 -3 -2 -2 -1 -0 -0 -0 -0 -1 -1 -1 -1 -1 -1 -1 -0 0 1 1 1 1 1 2 2 2
6 6 5 3 -0 -2 -3 -3 -3 -3 -2 -2 -1 -1 -0 -0 -0 -1 -1 -1 -1 -1 -1 -1 -0 0 1 1 1 1 1 1
6 6 6 5 3 -1 -3 -3 -3 -3 -3 -3 -3 -2 -1 -1 -1 -1 -1 -1 -1 -1 -1 -1 -1 -0 -0 0 0 0 0 -0
5 6 6 6 5 2 -1 -3 -3 -3 -2 -3 -3 -3 -3 -3 -3 -2 -2 -2 -2 -1 -1 -1 -1 -0 -0 -0 -0 -1 -1 -1
5 5 5 4 4 3 1 -2 -3 -3 -2 -2 -2 -3 -3 -4 -4 -4 -4 -3 -3 -2 -1 -1 -1 -1 -1 -1 -1 -1 -1 -2
4 4 3 3 2 2 1 -0 -1 -3 -3 -2 -2 -2 -3 -3 -4 -4 -4 -4 -4 -3 -2 -1 -1 -1 -1 -1 -1 -2 -2 -2
4 3 2 1 1 -0 -1 -1 -1 -3 -4 -3 -3 -3 -3 -3 -3 -4 -4 -4 -4 -4 -3 -2 -2 -2 -2 -2 -2 -2 -3 -3
6 5 4 3 2 1 -1 -2 -3 -3 -4 -4 -4 -4 -4 -3 -4 -4 -4 -4 -4 -4 -4 -4 -3 -3 -3 -3 -3 -3 -4 -4
8 8 8 7 6 5 2 0 -1 -2 -3 -4 -4 -4 -4 -4 -4 -4 -5 -5 -4 -4 -4 -4 -4 -4 -4 -3 -3 -3 -3 -4
8 9 10 10 10 9 7 6 5 4 3 1 -1 -2 -3 -4 -4 -4 -4 -5 -5 -5 -5 -5 -5 -4 -3 -2 -1 -2 -2 -2
7 8 8 9 9 10 9 9 9 9 8 7 6 4 3 1 -0 -1 -1 -2 -3 -4 -4 -4 -4 -3 -3 -2 -1 -1 -2 -1
7 7 7 8 8 9 9 9 10 10 10 10 10 9 9 7 6 6 5 3 1 0 -1 -2 -2 -3 -3 -3 -3 -3 -3 -2
8 7 8 8 8 9 9 9 10 10 9 10 10 11 11 11 11 10 9 8 7 6 5 3 2 0 -1 -1 -2 -3 -3 -3
8 8 8 9 9 10 10 10 10 10 10 10 10 10 11 11 11 11 11 11 10 10 9 8 7 6 5 4 2 1 -0 -1
7 7 8 9 10 10 11 11 11 11 10 10 11 11 11 11 11 11 11 11 11 11 11 10 10 10 10 9 7 6 5 4
7 7 7 8 9 10 11 12 12 12 12 12 12 12 11 11 11 10 10 10 11 11 11 11 11 11 11 10 10 9 8 7
7 7 7 8 9 9 10 12 12 13 13 13 13 13 12 12 11 11 10 10 10 11 11 11 11 11 11 10 10 10 9 9